Regional Weather Roundup
Issued by NWS Wakefield, VA

Home | Current Version | Previous Version | Graphics & Text | Print | Product List | Glossary On
Versions: 1 2 3 4 5 6 7 8 9 10 11 12 13 14 15 16 17 18 19 20 21 22 23 24 25 26 27 28 29 30 31 32 33 34 35 36 37 38 39 40 41 42 43 44 45 46 47 48 49 50
000
ASUS41 KAKQ 021815
RWRAKQ

REGIONAL WEATHER ROUNDUP
NATIONAL WEATHER SERVICE WAKEFIELD VA
200 PM EDT SUN AUG 02 2015

Note: "fair" indicates few or no clouds below 12,000 feet with no
significant weather and/or obstructions to visibility. * = Denotes
station may not report precipitation (e.g., rain,snow,etc.),
thunder or fog.

VAZ042-051-052>054-056-021900-
NORTHERN VIRGINIA

CITY           SKY/WX    TMP DP  RH WIND       PRES   REMARKS
WASH NATIONAL  PTSUNNY   89  58  34 SE3       29.95F
DULLES         PTSUNNY   84  54  35 W6        29.96F
FORT BELVOIR   NOT AVBL
QUANTICO       NOT AVBL
FREDERICKSBRG* PTSUNNY   87  61  41 S6        29.96S
STAFFORD*      MOSUNNY   84  50  30 CALM      30.01S
WARRENTON      MOSUNNY   87  58  37 CALM      29.97F
CULPEPER*      MOSUNNY   83  58  42 CALM      29.98F
MANASSAS*      SUNNY     86  57  37 W3        29.96F
LEESBURG*      SUNNY     86  59  39 SW7       29.97F
WINCHESTER     CLOUDY    86  55  35 W3        29.97F
FRONT ROYAL*   FAIR      84  59  42 E5        29.97F
LURAY*         MOCLDY    86  54  32 S3        29.99F
$$

VAZ048-049-060>072-079>083-021900-
CENTRAL AND SOUTH CENTRAL VIRGINIA

CITY           SKY/WX    TMP DP  RH WIND       PRES   REMARKS
RICHMOND       PTSUNNY   88  62  41 NE6       29.96F
CHESTERFIELD*  FAIR      88  55  33 NW10      29.98F
PETERSBURG*    PTSUNNY   87  65  47 N3        29.97F
HANOVER        CLOUDY    86  62  44 N6        29.98F
TAPPAHANNOCK*  CLOUDY    86  57  37 CALM      29.97F
QUINTON*       FAIR      85  63  46 N3        29.96S
CHARLOTTSVILLE PTSUNNY   82  55  39 SW5       29.99F
GORDONSVILLE*  FAIR      82  61  47 SW3       29.98F
ORANGE*        PTSUNNY   86  55  35 S3        30.00F
LOUISA*        CLOUDY    84  57  39 SE5       29.98F
BUMPASS*       FAIR      83  60  46 CALM      29.99S
FARMVILLE*     PTSUNNY   84  56  37 NE7       29.98F
CREWE*         FAIR     N/A N/A N/A N3        29.99S
FORT PICKETT*  FAIR      86  59  40 CALM      29.98F
CHASE CITY*    FAIR      86  64  47 N5        29.99F
CLARKSVILLE*   FAIR      82  63  51 CALM      29.98F
SOUTH HILL*    PTSUNNY   84  60  43 N8        30.03F
LAWRENCEVILLE* FAIR      84  63  48 CALM      29.97F
EMPORIA*       PTSUNNY   82  63  51 NW7       29.97F
$$

VAZ088>098-021900-
SOUTHEAST VIRGINIA

CITY           SKY/WX    TMP DP  RH WIND       PRES   REMARKS
NORFOLK        MOSUNNY   85  72  65 NE9       29.93F
VIRGINIA BEACH PTSUNNY   85  73  67 NE10      29.93S
NORFOLK NAVAL  PTSUNNY   85  70  60 N14       29.95F
WEST POINT*    PTSUNNY   88  62  40 CALM      29.96F
SALUDA*        FAIR      84  64  50 NE3       29.95F
NEWPORT NEWS   PTSUNNY   86  64  47 NE9       29.95F
LANGLEY AFB    NOT AVBL
FORT EUSTIS    NOT AVBL
WILLIAMSBURG*  PTSUNNY   90  72  55 NE5       29.96S HX  96
HR EXEC AP*    FAIR      88  73  62 N7        29.94F HX  96
FRANKLIN*      PTSUNNY   86  69  56 NW6       29.94F
WAKEFIELD      PTSUNNY   86  69  56 CALM      29.96S
$$

VAZ020-022-025-037-045-021900-
WEST CENTRAL AND SOUTHWEST VIRGINIA

CITY           SKY/WX    TMP DP  RH WIND       PRES   REMARKS
STAUNTON*      PTSUNNY   86  49  28 CALM      30.03F
WAYNESBORO*    MOCLDY    79  54  42 CALM      30.03S
HOT SPRINGS VA PTSUNNY   68  58  72 SE6       30.13F
LYNCHBURG      PTSUNNY   80  56  43 SE3       30.03S
DANVILLE       MOSUNNY   85  58  39 VRB5      30.01S
SOUTH BOSTON*  FAIR      83  59  44 E5        29.99F
MARTINSVILLE   SUNNY     86  51  30 E3        30.04F
ROANOKE        PTSUNNY   80  56  43 N9        30.05F
BLACKSBURG     PTSUNNY   80  58  47 SE6       30.10F
DUBLIN*          N/A     79  55  43 SE5       30.09F
MARION*        MOSUNNY   78  56  46 S3        30.12S
HILLSVILLE*    PTSUNNY   74  54  49 CALM      30.10S
RICHLANDS*     FAIR      76  58  53 CALM      30.10F
WISE*          SUNNY     81  52  36 CALM      30.10F
ABINGDON*      SUNNY     83  48  29 SW5       30.07F
$$

MDZ021>025-VAZ099-100-021900-
SOUTHERN MARYLAND AND THE DELMARVA PENINSULA

CITY           SKY/WX    TMP DP  RH WIND       PRES   REMARKS
PATUXENT RIVER PTSUNNY   86  52  30 NE7       29.95F
BAY BRIDGE APT   N/A     86  50  28 W5        29.95F
LEONARDTOWN    PTSUNNY   84  54  34 CALM      29.97F
DOVER          NOT AVBL
GEORGETOWN     MOSUNNY   86  63  45 CALM      29.95F
EASTON         MOSUNNY   86  57  37 N6        29.98F
CAMBRIDGE      SUNNY     86  52  30 N3        29.94F
SALISBURY      SUNNY     87  62  43 N5        29.94F
OCEAN CITY     MOSUNNY   84  61  45 E8        29.94F
WALLOPS ISLAND SUNNY     84  69  60 E8        29.95F
ACCOMACK*      CLOUDY    82  59  44 E5        29.94F
$$

NCZ012>017-030>032-021900-
NORTH CENTRAL AND EASTERN NORTH CAROLINA

CITY           SKY/WX    TMP DP  RH WIND       PRES   REMARKS
ROANOKE RAPIDS FAIR      88  61  40 NW5       29.95F
RALEIGH        MOSUNNY   87  59  38 NE5       29.98F
ELIZABETH CITY MOSUNNY   91  62  37 SW8       29.92F
AHOSKIE*       PTSUNNY   85  64  49 CALM      29.94F
EDENTON*         N/A     91  65  42 W7        29.93F
CURRITUCK*     SUNNY     91  63  39 SW6       29.93F
KILL DEVIL HLS SUNNY     95  65  36 SE6       29.92S HX  97
MANTEO         MOSUNNY   88  70  55 SE3       29.93S
CAPE HATTERAS  SUNNY     87  75  67 S8        29.95R HX  96
TARBORO*         N/A     92  59  33 CALM      29.94F
GOLDSBORO      SUNNY     92  62  37 VRB2      29.92F
WASHINGTON     SUNNY     90  67  46 W6        29.93F
GREENVILLE     MOSUNNY   93  63  36 SW9       29.95F
NEW BERN       SUNNY     94  65  38 W7        29.94S HX  96
WILMINGTON     PTSUNNY   88  74  63 SE12G21   29.94S HX  96
$$

VAZ048-021900-
ELSEWHERE

CITY           SKY/WX    TMP DP  RH WIND       PRES   REMARKS
HARRISBURG PA  PTSUNNY   87  58  37 S14       29.92F
BALTIMORE      MOSUNNY   88  51  28 VRB6      29.94F
ANNAPOLIS      MOSUNNY   83  59  44 SE10      29.94F
ANDREWS AFB    SUNNY     86  53  31 W6        29.95F
PHILADELPHIA   MOSUNNY   88  51  28 SW9       29.92F
HENDERSON NC   SUNNY     84  53  33 NE5       29.99S
GREENSBORO     MOSUNNY   86  55  34 E6        29.99F
ROCKY MOUNT    MOSUNNY   91  58  32 VRB6      29.95F
$$

VAZ100-021900-
MARINE

STATION/POSITION TIME  TEMP    WIND        PRES    WAVE   SWELL
                       AIR SEA DIR/SP/G            HT/PER HT/PER
                 (UTC) (F)     (DEG/KT/KT) (MB)    (FT/S) (FT/S)
BRANDYWINE LGT   1700   77 75  330/  2/  3 1014.6F
CAPE MAY NJ      1700   80 73  300/  7/  9 1014.0F
LEWES DE         1700   77 74  350/  4/  5 1014.3F
15NM E FENWICK I 1750   79 80   20/  4/  4 1014.3F   2/12   2/12
OCEAN-CITY-INLET 1700   80 73   80/  5/  8 1013.6R
WACHAPREAGUE VA  1730   81 84   70/  8/ 10 1014.3F
GOOSES REEF MD   1800   83 84   CALM  /  2 1015.3F
COVE POINT MD    1700   80     360/  7/  9 1015.4F
SOLOMONS ISLAND  1700      83                N/A
BISHOPS HEAD MD  1700   85 83   40/  5/  7 1013.6F
PINEY POINT MD   1700          310/  3/  4   N/A
POTOMAC MD       1800   83 83   40/  6/  8 1013.1F   0
CAMBRIDGE MD     1700   83 84  300/  4/  5 1013.5F
LEWISETTA VA     1700   83 84  360/  2/  3 1014.3F
RAPPAHANNOCK LGT 1700           10/  9/ 10 1014.8S
STINGRAY PT      1800   82 83   20/ 10/ 12 1014.4F   1/ 3
YORK RVR RNG VA  1700   82      50/ 13/ 15 1013.7S
YORKTOWN VA      1700   83 84   40/ 10/ 12 1014.0F
JAMESTOWN VA     1800   84 87  350/  6/ 10   N/A
DOMINION TERM VA 1700   84      50/  4/  6 1014.0S
KIPTOPEKE VA     1700      82   80/ 10/ 12   N/A
CHES BAY BRIDGE  1700   81 80   20/  6/  9 1013.6S
CAPE HENRY VA    1700   79      30/ 10/ 11   N/A
CHESAPEAKE LGHT  1700   79      10/  9/ 10 1014.5S
WILLOUBY STN VA  1700   81      40/ 10/ 10 1015.1S
CAPE HENRY BUOY  1728      81                N/A     2/12   2/12
1ST LANDING BUOY 1800      81              1013.4F   1/ 3
CAPE CHARLES BUO 1726      79                N/A     2/12   2/12
OFFSHORE WE BUOY 1711      83                N/A     2/11   2/11
64NM E OF VA BCH 1750   82 83  150/ 12/ 14 1013.2F   3/ 7   3/ 7
DUCK PIER NC     1700   84 78  120/  5/  5 1012.9F
44100 DUCK FRF   1724      84                N/A     2/ 7   2/13
44056 DUCK FRF   1711      81                N/A     1/11   2/11
OREGON INLET NC  1700   85 82   80/  6/  8 1013.6F
HATTERAS NC      1700   85 81  300/  1/  4 1013.6F
DIAMOND SHLS NC  1750   82 86  170/ 14/ 16 1014.5R   3/ 8   2/ 8


USA.gov is the U.S. government's official web portal to all federal, state and local government web resources and services.